Location: Clermont
(50.2608°N, 4.3172°E)
Time: 03:44:03
(UTC+00:00)

Cosmos 1300 Rocket - Pass Details

Date: 13 August 2020
Orbit: 603 x 625 km, 82.5° (Epoch: 25 September)

Event Time Altitude Azimuth Distance (km) Brightness Sun altitude
Exits shadow 23:34:17 39° 71° (ENE) 920 4.5 -25.4°
Drops below altitude 10° 23:37:47 10° 23° (NNE) 1,963 7.0 -25.4°
Sets 23:40:05 0° 16° (NNE) 2,873 8.1 -25.4°
